TimeCDT,TemperatureF,Dew PointF,Humidity,Sea Level PressureIn,VisibilityMPH,Wind Direction,Wind SpeedMPH,Gust SpeedMPH,PrecipitationIn,Events,Conditions,WindDirDegrees,DateUTC
12:53 AM,75.9,66.9,74,30.06,10.0,South,3.5,-,N/A,,Clear,170,2013-07-09 05:53:00
1:53 AM,73.9,66.0,76,30.06,10.0,SSE,3.5,-,N/A,,Clear,160,2013-07-09 06:53:00
2:53 AM,73.9,66.9,79,30.06,10.0,Calm,Calm,-,N/A,,Clear,0,2013-07-09 07:53:00
3:53 AM,72.0,66.9,84,30.06,10.0,SE,3.5,-,N/A,,Clear,140,2013-07-09 08:53:00
4:53 AM,72.0,66.9,84,30.06,10.0,Calm,Calm,-,N/A,,Clear,0,2013-07-09 09:53:00
5:53 AM,71.1,66.9,87,30.06,10.0,SE,3.5,-,N/A,,Clear,130,2013-07-09 10:53:00
6:53 AM,72.0,66.9,84,30.07,10.0,Calm,Calm,-,N/A,,Clear,0,2013-07-09 11:53:00
7:53 AM,78.1,69.1,74,30.08,10.0,Calm,Calm,-,N/A,,Clear,0,2013-07-09 12:53:00
8:53 AM,82.9,69.1,63,30.09,10.0,Variable,6.9,-,N/A,,Clear,0,2013-07-09 13:53:00
9:53 AM,86.0,66.0,51,30.08,10.0,West,11.5,-,N/A,,Clear,260,2013-07-09 14:53:00
10:53 AM,87.1,66.0,49,30.08,10.0,WSW,9.2,-,N/A,,Clear,240,2013-07-09 15:53:00
11:53 AM,89.1,66.0,46,30.08,10.0,SW,6.9,-,N/A,,Clear,230,2013-07-09 16:53:00
12:53 PM,91.0,66.0,44,30.06,10.0,WSW,5.8,-,N/A,,Scattered Clouds,240,2013-07-09 17:53:00
1:53 PM,91.9,66.0,42,30.03,10.0,WSW,11.5,16.1,N/A,,Mostly Cloudy,250,2013-07-09 18:53:00
2:53 PM,91.0,66.9,45,30.02,10.0,Variable,4.6,-,N/A,,Mostly Cloudy,0,2013-07-09 19:53:00
3:53 PM,91.9,66.9,44,30.01,10.0,SW,9.2,18.4,N/A,,Partly Cloudy,230,2013-07-09 20:53:00
4:53 PM,93.0,66.9,42,29.99,10.0,SW,9.2,-,N/A,,Clear,230,2013-07-09 21:53:00
5:53 PM,91.9,66.0,42,29.99,10.0,SSW,4.6,-,N/A,,Partly Cloudy,210,2013-07-09 22:53:00
6:53 PM,90.0,64.9,43,29.99,10.0,SW,5.8,-,N/A,,Clear,230,2013-07-09 23:53:00
7:53 PM,87.1,66.0,49,29.98,10.0,SW,3.5,-,N/A,,Clear,220,2013-07-10 00:53:00
8:53 PM,84.0,66.0,55,29.97,10.0,Calm,Calm,-,N/A,,Clear,0,2013-07-10 01:53:00
9:53 PM,82.9,66.0,56,29.98,10.0,SSW,3.5,-,N/A,,Clear,200,2013-07-10 02:53:00
10:53 PM,82.0,66.0,58,29.99,10.0,SSW,3.5,-,N/A,,Clear,210,2013-07-10 03:53:00
11:53 PM,80.1,66.0,62,29.99,10.0,South,4.6,-,N/A,,Clear,190,2013-07-10 04:53:00